Station History

Weather Underground - logo

Station Historical Data
Daily Summary for July 6, 2017 Units:  English    Metric   Both
« Previous Day
Next Day »
Daily Weekly Monthly Yearly Custom
  High: Low: Average:
Temperature: 102.5 °F 69.2 °F 85.6 °F
Dew Point: 70.8 °F 57.4 °F 65.2 °F
Humidity: 84 % 24 % 55 %
Wind Speed: 6.9 mph 0.0 mph 1.4 mph
Wind Gust: 6.9 mph - -
Wind:- - SSW
Pressure: 29.99 in 29.85 in -
Precipitation: 0.00 in    
Historical Graphs
 
 
Tabular Data for July 6, 2017
Time Temperature Dew Point Pressure Wind Wind Speed Wind Gust Humidity Rainfall Rate (Hourly)
00:00 78.1 °F 67.9 °F 29.90 in Calm     71 % 0.00 in
00:05 77.6 °F 67.4 °F 29.90 in Calm     71 % 0.00 in
00:10 77.0 °F 67.7 °F 29.91 in Calm     73 % 0.00 in
00:15 76.6 °F 67.3 °F 29.91 in Calm     73 % 0.00 in
00:16 76.6 °F 67.7 °F 29.91 in NW 1.0 mph   74 % 0.00 in
00:21 76.4 °F 67.1 °F 29.91 in North 1.2 mph 1.2 mph 73 % 0.00 in
00:26 76.6 °F 67.3 °F 29.91 in Calm     73 % 0.00 in
00:31 76.6 °F 66.9 °F 29.91 in Calm     72 % 0.00 in
00:33 76.6 °F 66.9 °F 29.90 in Calm     72 % 0.00 in
00:38 76.4 °F 67.1 °F 29.91 in Calm     73 % 0.00 in
00:43 76.5 °F 66.8 °F 29.91 in Calm     72 % 0.00 in
00:48 76.4 °F 67.5 °F 29.90 in Calm     74 % 0.00 in
00:53 76.1 °F 67.2 °F 29.90 in Calm     74 % 0.00 in
00:58 76.1 °F 66.8 °F 29.91 in Calm     73 % 0.00 in
01:03 76.3 °F 66.6 °F 29.91 in Calm     72 % 0.00 in
01:08 76.2 °F 67.3 °F 29.91 in Calm     74 % 0.00 in
01:13 76.0 °F 67.5 °F 29.91 in Calm     75 % 0.00 in
01:18 75.7 °F 67.2 °F 29.91 in Calm     75 % 0.00 in
01:23 75.4 °F 67.3 °F 29.91 in Calm     76 % 0.00 in
01:28 75.2 °F 67.1 °F 29.91 in Calm     76 % 0.00 in
01:33 75.1 °F 67.0 °F 29.91 in Calm     76 % 0.00 in
01:38 75.2 °F 67.9 °F 29.91 in Calm     78 % 0.00 in
01:43 74.9 °F 67.2 °F 29.91 in Calm     77 % 0.00 in
01:48 74.7 °F 67.4 °F 29.91 in Calm     78 % 0.00 in
01:54 74.6 °F 67.3 °F 29.90 in Calm     78 % 0.00 in
02:03 74.5 °F 67.2 °F 29.90 in Calm     78 % 0.00 in
02:09 74.5 °F 67.2 °F 29.90 in Calm     78 % 0.00 in
02:12 74.5 °F 67.2 °F 29.91 in Calm     78 % 0.00 in
02:15 74.5 °F 67.2 °F 29.91 in Calm     78 % 0.00 in
02:16 74.5 °F 67.2 °F 29.91 in Calm     78 % 0.00 in
02:20 74.5 °F 66.8 °F 29.91 in Calm     77 % 0.00 in
02:22 74.5 °F 67.2 °F 29.91 in Calm     78 % 0.00 in
02:23 74.5 °F 67.2 °F 29.91 in Calm     78 % 0.00 in
02:25 74.5 °F 66.8 °F 29.91 in Calm     77 % 0.00 in
02:26 74.5 °F 66.8 °F 29.91 in Calm     77 % 0.00 in
02:27 74.5 °F 67.2 °F 29.91 in Calm     78 % 0.00 in
02:30 74.4 °F 67.1 °F 29.91 in Calm     78 % 0.00 in
02:31 74.4 °F 67.1 °F 29.91 in Calm     78 % 0.00 in
02:36 74.3 °F 67.4 °F 29.91 in Calm     79 % 0.00 in
02:41 74.1 °F 67.2 °F 29.91 in Calm     79 % 0.00 in
02:46 74.1 °F 67.2 °F 29.91 in Calm     79 % 0.00 in
02:49 74.1 °F 67.2 °F 29.91 in Calm     79 % 0.00 in
02:54 74.1 °F 67.5 °F 29.91 in Calm     80 % 0.00 in
02:59 74.0 °F 67.1 °F 29.91 in Calm     79 % 0.00 in
03:04 74.0 °F 67.1 °F 29.91 in Calm     79 % 0.00 in
03:09 73.9 °F 66.6 °F 29.91 in Calm     78 % 0.00 in
03:14 73.9 °F 66.2 °F 29.91 in Calm     77 % 0.00 in
03:19 73.7 °F 65.7 °F 29.91 in Calm     76 % 0.00 in
03:24 73.9 °F 65.5 °F 29.91 in Calm     75 % 0.00 in
03:29 74.0 °F 66.0 °F 29.91 in Calm     76 % 0.00 in
03:34 73.9 °F 66.2 °F 29.91 in Calm     77 % 0.00 in
03:39 73.5 °F 65.8 °F 29.91 in Calm     77 % 0.00 in
03:44 73.2 °F 65.9 °F 29.91 in Calm     78 % 0.00 in
03:49 73.1 °F 65.8 °F 29.91 in Calm     78 % 0.00 in
03:54 73.1 °F 66.2 °F 29.91 in Calm     79 % 0.00 in
03:59 73.2 °F 66.3 °F 29.91 in Calm     79 % 0.00 in
04:04 73.1 °F 66.2 °F 29.91 in Calm     79 % 0.00 in
04:09 72.9 °F 65.6 °F 29.92 in Calm     78 % 0.00 in
04:14 72.9 °F 66.4 °F 29.92 in Calm     80 % 0.00 in
04:19 72.8 °F 66.3 °F 29.92 in Calm     80 % 0.00 in
04:24 72.7 °F 65.8 °F 29.92 in Calm     79 % 0.00 in
04:29 72.5 °F 65.6 °F 29.92 in Calm     79 % 0.00 in
04:34 72.4 °F 65.9 °F 29.92 in Calm     80 % 0.00 in
04:39 72.2 °F 66.4 °F 29.92 in Calm     82 % 0.00 in
04:44 72.1 °F 66.3 °F 29.93 in North 1.2 mph   82 % 0.00 in
04:49 71.9 °F 66.5 °F 29.93 in Calm     83 % 0.00 in
04:54 71.8 °F 66.4 °F 29.93 in North 1.2 mph   83 % 0.00 in
04:59 71.6 °F 66.2 °F 29.93 in Calm     83 % 0.00 in
05:04 71.6 °F 66.2 °F 29.93 in North 1.2 mph 1.2 mph 83 % 0.00 in
05:09 71.6 °F 66.2 °F 29.93 in Calm     83 % 0.00 in
05:14 71.4 °F 66.0 °F 29.93 in Calm     83 % 0.00 in
05:19 71.2 °F 65.8 °F 29.94 in Calm     83 % 0.00 in
05:24 70.9 °F 65.5 °F 29.94 in Calm     83 % 0.00 in
05:29 70.7 °F 65.3 °F 29.94 in Calm     83 % 0.00 in
05:34 70.5 °F 65.1 °F 29.94 in Calm   0.1 mph 83 % 0.00 in
05:39 70.1 °F 64.7 °F 29.94 in Calm   0.1 mph 83 % 0.00 in
05:45 70.0 °F 64.6 °F 29.94 in Calm     83 % 0.00 in
05:50 69.7 °F 64.3 °F 29.95 in Calm     83 % 0.00 in
05:55 69.6 °F 64.2 °F 29.95 in Calm     83 % 0.00 in
06:00 69.4 °F 64.4 °F 29.95 in Calm     84 % 0.00 in
06:05 69.3 °F 64.3 °F 29.95 in Calm     84 % 0.00 in
06:10 69.2 °F 64.2 °F 29.95 in Calm     84 % 0.00 in
06:15 69.2 °F 63.8 °F 29.95 in North 1.2 mph   83 % 0.00 in
06:20 69.4 °F 64.0 °F 29.96 in North 1.2 mph 1.2 mph 83 % 0.00 in
06:25 69.6 °F 64.2 °F 29.96 in North 1.2 mph   83 % 0.00 in
06:30 69.9 °F 64.2 °F 29.96 in Calm     82 % 0.00 in
06:31 70.0 °F 64.2 °F 29.96 in Calm     82 % 0.00 in
06:36 70.3 °F 64.2 °F 29.96 in North 1.2 mph   81 % 0.00 in
06:41 70.6 °F 64.5 °F 29.97 in North 1.2 mph 1.2 mph 81 % 0.00 in
06:46 71.1 °F 64.6 °F 29.97 in Calm     80 % 0.00 in
06:51 72.0 °F 64.8 °F 29.97 in Calm     78 % 0.00 in
06:56 72.7 °F 64.7 °F 29.97 in ESE 2.0 mph 2.0 mph 76 % 0.00 in
07:01 73.3 °F 64.5 °F 29.97 in Calm   0.2 mph 74 % 0.00 in
07:06 73.8 °F 64.6 °F 29.97 in NNE 1.2 mph   73 % 0.00 in
07:11 74.2 °F 64.6 °F 29.97 in SE 2.3 mph   72 % 0.00 in
07:17 74.6 °F 64.6 °F 29.98 in SE 2.3 mph 2.3 mph 71 % 0.00 in
07:22 74.8 °F 64.4 °F 29.98 in ESE 1.2 mph 1.2 mph 70 % 0.00 in
07:27 74.9 °F 64.5 °F 29.98 in SE 1.2 mph 1.2 mph 70 % 0.00 in
07:32 75.1 °F 64.2 °F 29.98 in SSE 2.3 mph 2.3 mph 69 % 0.00 in
07:37 75.5 °F 64.2 °F 29.98 in ESE 2.3 mph 2.3 mph 68 % 0.00 in
07:42 76.0 °F 64.2 °F 29.98 in SSE 2.3 mph 2.3 mph 67 % 0.00 in
07:47 76.3 °F 64.1 °F 29.98 in SE 1.2 mph 1.2 mph 66 % 0.00 in
07:52 76.4 °F 64.2 °F 29.98 in SSE 2.3 mph 2.3 mph 66 % 0.00 in
07:57 76.6 °F 64.0 °F 29.98 in East 2.3 mph 2.3 mph 65 % 0.00 in
08:02 76.6 °F 64.0 °F 29.98 in East 3.5 mph 3.5 mph 65 % 0.00 in
08:07 76.6 °F 64.0 °F 29.98 in East 2.3 mph 2.3 mph 65 % 0.00 in
08:08 76.6 °F 64.4 °F 29.98 in NE 2.3 mph 2.3 mph 66 % 0.00 in
08:13 76.8 °F 64.1 °F 29.98 in East 3.5 mph 3.5 mph 65 % 0.00 in
08:18 77.3 °F 64.2 °F 29.98 in East 3.5 mph 3.5 mph 64 % 0.00 in
08:23 77.9 °F 63.4 °F 29.98 in NE 3.0 mph 3.0 mph 61 % 0.00 in
08:28 78.2 °F 63.6 °F 29.98 in ESE 3.5 mph 3.5 mph 61 % 0.00 in
08:33 78.6 °F 63.1 °F 29.98 in East 3.5 mph 3.5 mph 59 % 0.00 in
08:38 79.4 °F 63.8 °F 29.99 in ENE 3.5 mph 3.5 mph 59 % 0.00 in
08:43 79.9 °F 64.8 °F 29.98 in East 1.2 mph 1.2 mph 60 % 0.00 in
08:48 80.3 °F 64.2 °F 29.98 in ENE 3.5 mph 3.5 mph 58 % 0.00 in
08:53 81.0 °F 64.3 °F 29.98 in South 4.6 mph 4.6 mph 57 % 0.00 in
08:58 81.8 °F 64.6 °F 29.98 in South 3.5 mph 3.5 mph 56 % 0.00 in
09:03 82.5 °F 65.2 °F 29.98 in SE 4.6 mph 4.6 mph 56 % 0.00 in
09:08 83.0 °F 64.1 °F 29.99 in SE 4.6 mph 4.6 mph 53 % 0.00 in
09:13 83.5 °F 64.6 °F 29.98 in SSE 2.3 mph 2.3 mph 53 % 0.00 in
09:18 84.1 °F 64.6 °F 29.98 in NNE 3.5 mph 3.5 mph 52 % 0.00 in
09:23 84.3 °F 64.8 °F 29.98 in SSE 5.8 mph 5.8 mph 52 % 0.00 in
09:28 84.5 °F 63.8 °F 29.98 in SE 4.6 mph 4.6 mph 50 % 0.00 in
09:33 85.0 °F 64.3 °F 29.98 in South 3.5 mph 3.5 mph 50 % 0.00 in
09:38 85.5 °F 64.7 °F 29.98 in ESE 4.6 mph 4.6 mph 50 % 0.00 in
09:43 85.7 °F 64.3 °F 29.98 in SSE 3.5 mph 3.5 mph 49 % 0.00 in
09:48 85.9 °F 64.5 °F 29.98 in SE 5.8 mph 5.8 mph 49 % 0.00 in
09:53 86.4 °F 64.4 °F 29.98 in SSE 3.0 mph 3.0 mph 48 % 0.00 in
09:58 86.6 °F 64.6 °F 29.98 in SSE 4.6 mph 4.6 mph 48 % 0.00 in
10:03 87.0 °F 64.3 °F 29.98 in SSE 4.6 mph 4.6 mph 47 % 0.00 in
10:08 87.0 °F 64.9 °F 29.98 in ENE 3.5 mph 3.5 mph 48 % 0.00 in
10:13 87.1 °F 64.4 °F 29.98 in East 6.9 mph 6.9 mph 47 % 0.00 in
10:14 87.1 °F 64.4 °F 29.98 in SE 2.3 mph 2.3 mph 47 % 0.00 in
10:19 87.3 °F 64.0 °F 29.98 in South 4.6 mph 4.6 mph 46 % 0.00 in
10:24 87.3 °F 65.2 °F 29.98 in SE 1.2 mph 1.2 mph 48 % 0.00 in
10:29 88.1 °F 65.3 °F 29.98 in NE 5.0 mph 5.0 mph 47 % 0.00 in
10:34 88.3 °F 66.1 °F 29.98 in SE 2.3 mph 2.3 mph 48 % 0.00 in
10:39 88.6 °F 65.8 °F 29.98 in ESE 2.3 mph 2.3 mph 47 % 0.00 in
10:44 88.9 °F 66.1 °F 29.98 in NNE 3.5 mph 3.5 mph 47 % 0.00 in
10:49 89.3 °F 66.4 °F 29.98 in SSE 1.2 mph 1.2 mph 47 % 0.00 in
10:54 89.6 °F 66.1 °F 29.98 in East 2.3 mph 2.3 mph 46 % 0.00 in
10:59 89.9 °F 65.1 °F 29.98 in WSW 3.5 mph 3.5 mph 44 % 0.00 in
11:04 90.4 °F 66.2 °F 29.98 in ESE 3.5 mph 3.5 mph 45 % 0.00 in
11:09 90.5 °F 66.3 °F 29.97 in South 3.5 mph 3.5 mph 45 % 0.00 in
11:14 90.8 °F 65.9 °F 29.97 in ESE 3.5 mph 3.5 mph 44 % 0.00 in
11:19 91.1 °F 65.5 °F 29.97 in SSE 3.5 mph 3.5 mph 43 % 0.00 in
11:24 91.2 °F 66.2 °F 29.97 in SSE 2.0 mph 2.0 mph 44 % 0.00 in
11:25 91.3 °F 67.0 °F 29.97 in NE 3.5 mph 3.5 mph 45 % 0.00 in
11:30 91.4 °F 65.8 °F 29.97 in SSE 3.5 mph 3.5 mph 43 % 0.00 in
11:35 91.5 °F 65.8 °F 29.97 in SW 2.0 mph 2.0 mph 43 % 0.00 in
11:40 92.1 °F 65.7 °F 29.97 in East 3.5 mph 3.5 mph 42 % 0.00 in
11:45 92.2 °F 64.4 °F 29.97 in NW 3.5 mph 3.5 mph 40 % 0.00 in
11:50 92.7 °F 64.8 °F 29.97 in SSE 3.5 mph 3.5 mph 40 % 0.00 in
11:55 93.0 °F 65.8 °F 29.96 in SW 3.5 mph 3.5 mph 41 % 0.00 in
12:00 93.3 °F 63.9 °F 29.96 in WNW 2.3 mph 2.3 mph 38 % 0.00 in
12:05 93.3 °F 63.1 °F 29.96 in NNW 3.5 mph 3.5 mph 37 % 0.00 in
12:10 93.5 °F 63.3 °F 29.96 in South 3.0 mph 3.0 mph 37 % 0.00 in
12:15 93.4 °F 62.5 °F 29.95 in WNW 4.6 mph 4.6 mph 36 % 0.00 in
12:20 93.6 °F 63.4 °F 29.95 in East 3.5 mph 3.5 mph 37 % 0.00 in
12:25 93.8 °F 63.6 °F 29.95 in NNW 1.2 mph 1.2 mph 37 % 0.00 in
12:30 94.0 °F 64.5 °F 29.95 in ESE 3.5 mph 3.5 mph 38 % 0.00 in
12:35 94.2 °F 63.9 °F 29.95 in NW 2.3 mph 2.3 mph 37 % 0.00 in
12:40 94.3 °F 62.4 °F 29.95 in SE 2.3 mph 2.3 mph 35 % 0.00 in
12:45 94.5 °F 65.0 °F 29.94 in NW 3.5 mph   38 % 0.00 in
12:50 94.9 °F 65.3 °F 29.94 in ENE 2.3 mph 2.3 mph 38 % 0.00 in
12:55 95.6 °F 63.6 °F 29.94 in NW 1.2 mph 1.3 mph 35 % 0.00 in
13:00 95.3 °F 61.6 °F 29.94 in South 3.5 mph 3.5 mph 33 % 0.00 in
13:05 95.2 °F 61.6 °F 29.94 in WNW 3.5 mph 3.5 mph 33 % 0.00 in
13:10 95.7 °F 62.0 °F 29.94 in NNW 2.3 mph   33 % 0.00 in
13:15 96.3 °F 63.4 °F 29.94 in NNW 3.5 mph 3.5 mph 34 % 0.00 in
13:20 97.1 °F 63.2 °F 29.93 in SE 2.3 mph 2.3 mph 33 % 0.00 in
13:26 97.6 °F 61.9 °F 29.93 in ESE 3.5 mph 3.5 mph 31 % 0.00 in
13:31 97.2 °F 58.7 °F 29.93 in NW 2.3 mph 2.3 mph 28 % 0.00 in
13:36 97.0 °F 63.1 °F 29.93 in WSW 2.3 mph 2.3 mph 33 % 0.00 in
13:41 97.5 °F 63.6 °F 29.93 in SE 2.3 mph 2.3 mph 33 % 0.00 in
13:46 97.5 °F 61.8 °F 29.92 in West 3.5 mph 3.5 mph 31 % 0.00 in
13:51 97.2 °F 63.3 °F 29.92 in WNW 3.5 mph 3.5 mph 33 % 0.00 in
13:56 97.5 °F 62.7 °F 29.92 in North 2.3 mph 2.3 mph 32 % 0.00 in
14:01 97.4 °F 62.6 °F 29.92 in WNW 2.3 mph 2.3 mph 32 % 0.00 in
14:06 97.5 °F 62.7 °F 29.92 in NW 2.3 mph 2.3 mph 32 % 0.00 in
14:11 97.0 °F 63.1 °F 29.92 in SE 2.3 mph 2.3 mph 33 % 0.00 in
14:16 97.5 °F 63.6 °F 29.92 in NW 1.2 mph 1.2 mph 33 % 0.00 in
14:21 97.7 °F 63.7 °F 29.92 in NNW 3.5 mph 3.5 mph 33 % 0.00 in
14:26 98.3 °F 64.3 °F 29.91 in WNW 2.3 mph 2.3 mph 33 % 0.00 in
14:31 98.7 °F 61.9 °F 29.91 in NW 2.3 mph 2.3 mph 30 % 0.00 in
14:36 98.9 °F 63.9 °F 29.91 in NW 1.2 mph 1.2 mph 32 % 0.00 in
14:41 98.5 °F 61.7 °F 29.91 in NW 3.5 mph 3.5 mph 30 % 0.00 in
14:42 98.5 °F 63.6 °F 29.91 in West 1.2 mph 1.2 mph 32 % 0.00 in
14:47 98.1 °F 60.4 °F 29.91 in NW 3.5 mph 3.5 mph 29 % 0.00 in
14:52 98.7 °F 64.6 °F 29.90 in NNE 1.2 mph   33 % 0.00 in
14:57 99.6 °F 62.7 °F 29.90 in NE 2.3 mph 2.3 mph 30 % 0.00 in
15:02 100.0 °F 63.9 °F 29.90 in South 1.2 mph 1.2 mph 31 % 0.00 in
15:07 100.3 °F 65.1 °F 29.90 in NNE 1.2 mph 1.2 mph 32 % 0.00 in
15:13 99.9 °F 61.0 °F 29.90 in ESE 2.3 mph 2.3 mph 28 % 0.00 in
15:18 99.8 °F 63.8 °F 29.89 in SE 2.3 mph 2.3 mph 31 % 0.00 in
15:23 100.2 °F 60.2 °F 29.89 in NE 2.0 mph 2.0 mph 27 % 0.00 in
15:28 99.6 °F 61.7 °F 29.89 in WNW 2.3 mph 2.3 mph 29 % 0.00 in
15:33 99.5 °F 62.6 °F 29.89 in SSE 1.2 mph 1.2 mph 30 % 0.00 in
15:38 99.7 °F 61.8 °F 29.89 in NW 2.3 mph 2.3 mph 29 % 0.00 in
15:43 100.2 °F 64.1 °F 29.88 in North 1.2 mph 1.2 mph 31 % 0.00 in
15:48 100.8 °F 62.7 °F 29.88 in SE 1.2 mph   29 % 0.00 in
15:53 101.0 °F 63.9 °F 29.88 in NW 3.5 mph 3.5 mph 30 % 0.00 in
15:58 100.8 °F 57.4 °F 29.88 in North 2.3 mph 2.3 mph 24 % 0.00 in
16:03 100.6 °F 59.5 °F 29.88 in South 1.2 mph 1.2 mph 26 % 0.00 in
16:08 101.0 °F 59.8 °F 29.88 in SE 1.2 mph 1.2 mph 26 % 0.00 in
16:13 101.2 °F 63.1 °F 29.87 in NNE 1.2 mph   29 % 0.00 in
16:18 101.5 °F 62.3 °F 29.87 in West 2.3 mph 2.3 mph 28 % 0.00 in
16:23 101.7 °F 61.5 °F 29.87 in NW 1.2 mph 1.2 mph 27 % 0.00 in
16:28 101.3 °F 61.1 °F 29.87 in Calm     27 % 0.00 in
16:33 101.7 °F 64.5 °F 29.86 in East 3.5 mph 3.5 mph 30 % 0.00 in
16:38 101.6 °F 64.4 °F 29.86 in NW 1.2 mph 1.2 mph 30 % 0.00 in
16:43 101.9 °F 65.6 °F 29.86 in NE 1.0 mph 1.0 mph 31 % 0.00 in
16:48 101.8 °F 64.6 °F 29.86 in NW 2.3 mph 2.3 mph 30 % 0.00 in
16:53 101.8 °F 63.6 °F 29.86 in East 2.3 mph 2.3 mph 29 % 0.00 in
16:58 101.7 °F 63.5 °F 29.86 in WNW 2.3 mph 2.3 mph 29 % 0.00 in
17:03 101.8 °F 62.6 °F 29.86 in NNE 2.3 mph 2.3 mph 28 % 0.00 in
17:08 102.0 °F 63.8 °F 29.85 in NNW 1.2 mph 1.2 mph 29 % 0.00 in
17:13 102.0 °F 60.7 °F 29.85 in West 2.3 mph 2.3 mph 26 % 0.00 in
17:18 102.2 °F 62.9 °F 29.85 in South 2.3 mph 2.3 mph 28 % 0.00 in
17:23 102.5 °F 65.2 °F 29.85 in Calm     30 % 0.00 in
17:28 102.5 °F 63.2 °F 29.85 in NW 3.5 mph 3.5 mph 28 % 0.00 in
17:33 101.8 °F 63.6 °F 29.85 in North 1.2 mph 1.2 mph 29 % 0.00 in
17:38 101.8 °F 63.6 °F 29.85 in ENE 2.0 mph 2.0 mph 29 % 0.00 in
17:43 101.5 °F 62.3 °F 29.85 in NW 2.3 mph 2.3 mph 28 % 0.00 in
17:49 100.8 °F 60.7 °F 29.85 in NW 3.5 mph 3.5 mph 27 % 0.00 in
17:54 100.3 °F 62.3 °F 29.85 in NW 3.5 mph 3.5 mph 29 % 0.00 in
17:59 100.1 °F 61.1 °F 29.85 in NW 1.2 mph 1.2 mph 28 % 0.00 in
18:04 99.9 °F 61.0 °F 29.85 in NW 3.5 mph 3.5 mph 28 % 0.00 in
18:09 99.6 °F 59.7 °F 29.85 in NNE 3.5 mph 3.5 mph 27 % 0.00 in
18:14 99.5 °F 59.6 °F 29.85 in North 3.5 mph 3.5 mph 27 % 0.00 in
18:16 99.4 °F 60.5 °F 29.85 in NNW 3.5 mph 3.5 mph 28 % 0.00 in
18:21 99.7 °F 61.8 °F 29.85 in NW 1.2 mph 1.2 mph 29 % 0.00 in
18:26 99.7 °F 60.8 °F 29.85 in NNW 2.3 mph 2.3 mph 28 % 0.00 in
18:31 99.5 °F 60.6 °F 29.85 in WNW 2.3 mph 2.3 mph 28 % 0.00 in
18:36 99.4 °F 60.5 °F 29.85 in NW 2.3 mph 2.3 mph 28 % 0.00 in
18:41 99.3 °F 61.4 °F 29.85 in NNW 2.3 mph 2.3 mph 29 % 0.00 in
18:46 99.3 °F 60.5 °F 29.85 in NW 2.3 mph 2.3 mph 28 % 0.00 in
18:51 99.1 °F 61.3 °F 29.85 in NW 3.0 mph 3.0 mph 29 % 0.00 in
18:56 98.8 °F 62.9 °F 29.86 in WSW 2.3 mph 2.3 mph 31 % 0.00 in
19:01 98.5 °F 63.6 °F 29.86 in WNW 1.2 mph 1.2 mph 32 % 0.00 in
19:07 98.0 °F 64.0 °F 29.86 in NW 1.2 mph 1.2 mph 33 % 0.00 in
19:12 97.7 °F 64.6 °F 29.85 in Calm     34 % 0.00 in
19:14 97.8 °F 64.7 °F 29.86 in West 1.2 mph 1.2 mph 34 % 0.00 in
19:19 97.7 °F 64.6 °F 29.85 in WNW 1.2 mph   34 % 0.00 in
19:24 97.1 °F 64.9 °F 29.85 in Calm     35 % 0.00 in
19:29 96.5 °F 64.4 °F 29.86 in Calm     35 % 0.00 in
19:34 96.1 °F 64.8 °F 29.86 in Calm     36 % 0.00 in
19:39 95.7 °F 65.3 °F 29.86 in Calm     37 % 0.00 in
19:44 95.2 °F 64.8 °F 29.86 in Calm     37 % 0.00 in
19:49 94.8 °F 66.0 °F 29.86 in Calm     39 % 0.00 in
19:54 94.4 °F 66.4 °F 29.86 in Calm     40 % 0.00 in
19:59 93.8 °F 66.5 °F 29.86 in Calm     41 % 0.00 in
20:04 93.2 °F 67.4 °F 29.86 in Calm     43 % 0.00 in
20:09 92.5 °F 68.1 °F 29.86 in Calm     45 % 0.00 in
20:15 91.9 °F 67.5 °F 29.87 in Calm     45 % 0.00 in
20:20 91.3 °F 67.6 °F 29.87 in Calm     46 % 0.00 in
20:25 90.9 °F 67.3 °F 29.86 in Calm     46 % 0.00 in
20:30 90.6 °F 67.6 °F 29.87 in Calm     47 % 0.00 in
20:35 90.4 °F 68.0 °F 29.87 in Calm     48 % 0.00 in
20:40 90.0 °F 70.0 °F 29.87 in Calm     52 % 0.00 in
20:45 89.3 °F 68.8 °F 29.87 in Calm     51 % 0.00 in
20:50 88.7 °F 68.2 °F 29.88 in Calm     51 % 0.00 in
20:55 88.2 °F 69.5 °F 29.88 in Calm     54 % 0.00 in
21:00 87.7 °F 70.1 °F 29.88 in Calm     56 % 0.00 in
21:05 87.4 °F 68.2 °F 29.88 in Calm     53 % 0.00 in
21:10 87.1 °F 69.0 °F 29.88 in Calm     55 % 0.00 in
21:15 86.8 °F 69.2 °F 29.89 in Calm     56 % 0.00 in
21:21 86.7 °F 69.6 °F 29.89 in Calm     57 % 0.00 in
21:26 86.4 °F 69.9 °F 29.89 in Calm     58 % 0.00 in
21:31 86.1 °F 70.1 °F 29.89 in Calm     59 % 0.00 in
21:36 85.8 °F 70.8 °F 29.89 in Calm     61 % 0.00 in
21:41 85.4 °F 69.4 °F 29.89 in Calm     59 % 0.00 in
21:46 85.1 °F 68.2 °F 29.89 in Calm     57 % 0.00 in
21:51 85.0 °F 68.1 °F 29.89 in Calm     57 % 0.00 in
21:56 84.7 °F 69.3 °F 29.89 in Calm     60 % 0.00 in
22:02 84.5 °F 68.6 °F 29.89 in Calm     59 % 0.00 in
22:07 84.2 °F 68.8 °F 29.89 in Calm     60 % 0.00 in
22:12 84.0 °F 68.1 °F 29.89 in Calm     59 % 0.00 in
22:17 83.9 °F 68.5 °F 29.89 in Calm     60 % 0.00 in
22:18 83.8 °F 68.9 °F 29.89 in Calm     61 % 0.00 in
22:23 83.6 °F 69.2 °F 29.89 in Calm     62 % 0.00 in
22:28 83.4 °F 68.5 °F 29.89 in Calm     61 % 0.00 in
22:33 83.2 °F 68.8 °F 29.89 in Calm     62 % 0.00 in
22:38 82.9 °F 68.5 °F 29.89 in Calm     62 % 0.00 in
22:43 82.7 °F 68.4 °F 29.89 in Calm     62 % 0.00 in
22:48 82.5 °F 69.1 °F 29.90 in Calm     64 % 0.00 in
22:53 82.3 °F 68.9 °F 29.90 in Calm     64 % 0.00 in
22:58 82.1 °F 68.7 °F 29.90 in Calm     64 % 0.00 in
23:03 81.9 °F 68.1 °F 29.90 in Calm     63 % 0.00 in
23:08 81.7 °F 67.4 °F 29.89 in Calm     62 % 0.00 in
23:13 81.6 °F 67.3 °F 29.89 in Calm     62 % 0.00 in
23:18 81.6 °F 67.3 °F 29.89 in Calm     62 % 0.00 in
23:23 81.5 °F 68.1 °F 29.89 in Calm     64 % 0.00 in
23:28 81.3 °F 67.5 °F 29.89 in Calm     63 % 0.00 in
23:33 81.1 °F 67.3 °F 29.90 in Calm     63 % 0.00 in
23:38 80.9 °F 68.0 °F 29.90 in Calm     65 % 0.00 in
23:43 80.7 °F 67.8 °F 29.90 in Calm     65 % 0.00 in
23:48 80.5 °F 67.6 °F 29.90 in Calm     65 % 0.00 in
23:53 80.4 °F 68.0 °F 29.89 in Calm     66 % 0.00 in
23:58 80.1 °F 67.7 °F 29.89 in Calm     66 % 0.00 in
Park Place, Exeter, Tulare County, California, USA
Compliments of Weather Underground - 2.75 mb